TDRS 5

Last updated on Sat Oct 18 2025 00:02:45 GMT+0000 (Coordinated Universal Time)

1 21639U 91054B 25290.36086338 .00000078 00000+0 00000+0 0 9998 2 21639 14.1018 355.5625 0013195 247.8452 105.1362 1.00278625125276
UTC large
Height (km)
Speed (km/s)
/
Latitude / Longitude
Inclination (degrees)
Orbital Period (minutes)
Azimuth
Elevation
Range (km)
Doppler Factor

Next 0 passes for location: London (51.5072 / 0.1276)

Sorry there are no passes over London.